Tracking 20621 objects as of 30-Mar-2020
HD Live streaming from Space Station
objects crossing your sky now

PEGASUS DEB

Track PEGASUS DEB now!
10-day predictions


NORAD ID: 39316
Int'l Code: 1994-029AFB
Perigee: 510.0 km
Apogee: 604.8 km
Inclination: 82.0 °
Period: 95.7 minutes
Semi major axis: 6928 km
RCS: 0.0019 m2 (small)
Launch date: May 19, 1994
Source: United States (US)
Launch site: AIR FORCE WESTERN TEST RANGE (AFWTR)

Note: This is SATELLITE DEBRIS
aabbcc
Your satellite tracking list
Your tracking list is empty




NASA's NSSDC Master Catalog

Two Line Element Set (TLE):
1 39316U 94029AFB 20089.16133424 +.00000598 +00000-0 +37667-4 0  9994
2 39316 082.0071 242.1054 0068401 340.2590 143.6323 15.05415627874728
Source of the keplerian elements: AFSPC